Lahore, Pakistan

11:03 AM PKT on April 24, 2017 (GMT +0500)
Lahore International

Weather History for OPLA - December, 2013

Change the Weather History Date:

Monday, December 23, 2013

  Actual Average Record
Temperature  
Mean Temperature 55 °F -  
Max Temperature 64 °F 65 °F 78 °F (2002)
Min Temperature 46 °F 41 °F 37 °F (2011)
Degree Days  
Heating Degree Days 10    
Growing Degree Days 5 (Base 50)    
Moisture  
Dew Point 45 °F    
Average Humidity 71    
Maximum Humidity 93    
Minimum Humidity 49    
Precipitation  
Precipitation 0.00 in - - ()
Sea Level Pressure  
Sea Level Pressure 30.15 in    
Wind  
Wind Speed 4 mph ()    
Max Wind Speed 9 mph    
Max Gust Speed -    
Visibility 2.1 miles    
Events      
Averages and records for this station are not official NWS values.
T = Trace of Precipitation, MM = Missing Value Source: Averaged Metar Reports

Daily Weather History Graph

Daily Weather History Graph

Search for Another Location

Airport or City:

Trip Planner

Search our weather history database for the weather conditions in past years. The results will help you decide how hot, cold, wet, or windy it might be!

Date:

Astronomy

Dec. 23, 2013 Rise Set
Actual Time 6:58 AM PKT 5:04 PM PKT
Civil Twilight 6:31 AM PKT 5:31 PM PKT
Nautical Twilight 6:01 AM PKT 6:01 PM PKT
Astronomical Twilight 5:31 AM PKT 6:31 PM PKT
Moon 10:28 PM PKT (12/23) 10:28 AM PKT (12/23)
Length of Visible Light 10h 59m
Length of Day
10h 05m
Waning Gibbous, 72% of the Moon is Illuminated
Dec 23
Waning Gibbous
Dec 25
Last Quarter
Jan 1
New
Jan 8
First Quarter
Jan 16
Full

Hourly Weather History & Observations

Time (PKT) Temp. Windchill Dew Point Humidity Pressure Visibility Wind Dir Wind Speed Gust Speed Precip Events Conditions
12:10 AM 51.8 °F - 48.2 °F 88% 30.15 in 0.9 mi WNW 3.5 mph - N/A   Mist
12:25 AM 51.8 °F - 48.2 °F 88% 30.15 in 0.9 mi West 3.5 mph - N/A   Mist
12:55 AM 50.0 °F - 46.4 °F 87% 30.15 in 0.9 mi WNW 3.5 mph - N/A   Mist
1:25 AM 50.0 °F - 46.4 °F 87% 30.15 in 0.9 mi NW 3.5 mph - N/A   Mist
1:55 AM 50.0 °F - 46.4 °F 87% 30.15 in 0.9 mi Calm Calm - N/A   Mist
2:55 AM 50.0 °F - 44.6 °F 82% 30.12 in 0.9 mi NW 4.6 mph - N/A   Mist
3:25 AM 48.2 °F - 44.6 °F 87% 30.12 in 0.9 mi Calm Calm - N/A   Mist
3:55 AM 48.2 °F - 44.6 °F 87% 30.12 in 0.9 mi Calm Calm - N/A   Mist
4:25 AM 48.2 °F - 44.6 °F 87% 30.12 in 0.9 mi Calm Calm - N/A   Mist
4:55 AM 48.2 °F - 44.6 °F 87% 30.12 in 0.9 mi NNW 4.6 mph - N/A   Mist
6:25 AM 46.4 °F 44.3 °F 44.6 °F 93% 30.12 in 0.9 mi NW 4.6 mph - N/A   Mist
6:55 AM 46.4 °F 43.5 °F 42.8 °F 87% 30.12 in 0.9 mi NW 5.8 mph - N/A   Partly Cloudy
7:25 AM 46.4 °F 44.3 °F 42.8 °F 87% 30.15 in 0.9 mi NW 4.6 mph - N/A   Partly Cloudy
7:55 AM 46.4 °F - 44.6 °F 93% 30.15 in 0.9 mi Calm Calm - N/A   Partly Cloudy
8:25 AM 48.2 °F - 44.6 °F 87% 30.18 in 1.2 mi West 3.5 mph - N/A   Partly Cloudy
8:55 AM 50.0 °F - 46.4 °F 87% 30.18 in 1.6 mi WNW 4.6 mph - N/A   Scattered Clouds
9:25 AM 51.8 °F - 46.4 °F 82% 30.18 in 1.6 mi NNW 6.9 mph - N/A   Scattered Clouds
9:55 AM 53.6 °F - 44.6 °F 72% 30.21 in 1.9 mi NNW 6.9 mph - N/A   Smoke
10:25 AM 55.4 °F - 44.6 °F 67% 30.18 in 1.9 mi NNW 6.9 mph - N/A   Smoke
10:55 AM 55.4 °F - 44.6 °F 67% 30.18 in 2.2 mi NW 8.1 mph - N/A   Smoke
11:25 AM 57.2 °F - 44.6 °F 63% 30.18 in 2.2 mi NW 9.2 mph - N/A   Smoke
11:55 AM 59.0 °F - 42.8 °F 55% 30.15 in 2.5 mi NW 8.1 mph - N/A   Smoke
12:25 PM 60.8 °F - 42.8 °F 52% 30.15 in 2.5 mi NW 6.9 mph - N/A   Smoke
12:55 PM 60.8 °F - 44.6 °F 55% 30.15 in 2.5 mi NW 5.8 mph - N/A   Smoke
1:25 PM 62.6 °F - 44.6 °F 52% 30.15 in 2.5 mi NNW 8.1 mph - N/A   Smoke
1:55 PM 62.6 °F - 46.4 °F 55% 30.12 in 3.1 mi WNW 8.1 mph - N/A   Smoke
2:25 PM 62.6 °F - 46.4 °F 55% 30.12 in 3.1 mi NW 6.9 mph - N/A   Smoke
2:55 PM 62.6 °F - 46.4 °F 55% 30.12 in 3.1 mi WNW 9.2 mph - N/A   Smoke
3:25 PM 62.6 °F - 46.4 °F 55% 30.12 in 3.1 mi NW 6.9 mph - N/A   Smoke
3:55 PM 62.6 °F - 46.4 °F 55% 30.12 in 3.1 mi NW 5.8 mph - N/A   Smoke
4:25 PM 62.6 °F - 46.4 °F 55% 30.12 in 3.1 mi NW 4.6 mph - N/A   Smoke
4:55 PM 60.8 °F - 46.4 °F 59% 30.12 in 3.1 mi NW 4.6 mph - N/A   Smoke
5:25 PM 64.4 °F - 44.6 °F 49% 30.12 in 3.1 mi Calm Calm - N/A   Smoke
5:55 PM 59.0 °F - 44.6 °F 59% 30.12 in 3.1 mi WNW 3.5 mph - N/A   Smoke
6:25 PM 59.0 °F - 44.6 °F 59% 30.12 in 3.1 mi West 4.6 mph - N/A   Smoke
6:55 PM 59.0 °F - 46.4 °F 63% 30.15 in 3.1 mi West 4.6 mph - N/A   Smoke
7:25 PM 57.2 °F - 41.0 °F 55% 30.15 in 3.1 mi West 3.5 mph - N/A   Smoke
7:55 PM 57.2 °F - 42.8 °F 59% 30.15 in 3.1 mi Calm Calm - N/A   Smoke
8:25 PM 55.4 °F - 42.8 °F 63% 30.15 in 3.1 mi Calm Calm - N/A   Smoke
8:55 PM 53.6 °F - 42.8 °F 67% 30.15 in 3.1 mi West 4.6 mph - N/A   Smoke
9:25 PM 51.8 °F - 42.8 °F 71% 30.18 in 3.1 mi West 5.8 mph - N/A   Smoke
9:55 PM 51.8 °F - 42.8 °F 71% 30.18 in 2.5 mi West 4.6 mph - N/A   Smoke
10:25 PM 51.8 °F - 42.8 °F 71% 30.18 in 2.5 mi West 3.5 mph - N/A   Smoke
10:55 PM 50.0 °F - 42.8 °F 76% 30.18 in 2.5 mi Calm Calm - N/A   Smoke
11:25 PM 50.0 °F - 42.8 °F 76% 30.18 in 2.5 mi Calm Calm - N/A   Smoke
11:55 PM 50.0 °F - 41.0 °F 71% 30.18 in 2.5 mi Calm Calm - N/A   Smoke